Flag for Switzerland Weather past 2 weeks in Horw, Lucerne, Switzerland

Now
49 °F

Cool.


Feels Like: 49 °F
Forecast: 38 / 70 °F
Wind: No wind

Location: Giswil

Current Time: May 23, 2015 at 9:25:34 AM

Latest Report: May 23, 2015 at 8:00 AM


Visibility: N/A

Pressure: 30.10 "Hg

Humidity: 85%

Dew point: 45 °F

Location of HorwLocation

Historic Weather in Horw — Graph

°F

Horw temperature yesterday

Maximum temperature yesterday: 56 °F (at 7:00 PM)
Minimum temperature yesterday: 45 °F (at 12:00 AM)
Average temperature yesterday: 49 °F

Past Weeks' High & Low Weather Summary

 TemperatureHumidityPressure
High80 °F (May 12, 3:00 PM)100% (May 9, 1:00 AM)30.41 "Hg (May 9, 1:00 AM)
Low40 °F (May 15, 2:00 PM)33% (May 12, 2:00 PM)29.73 "Hg (May 18, 7:00 PM)
Average56 °F78%30.11 "Hg
* Reported May 8 7:00 AM — May 23 7:00 AM, Horw, Weather by CustomWeather, © 2015

Note: Actual official high and low records may vary slightly from our data, if they occured in-between our weather recording intervals... More about our weather records

Advertising

Horw weather history for previous 24 hours

 ConditionsComfort  
Time TempWeatherWind HumidityBarometerVisibility
7:00 AM
Sat, May 23
46 °FCool.1 mph96%30.10 "HgN/A
6:00 AM46 °FCool.1 mph96%30.10 "HgN/A
4:00 AM47 °FCool.2 mph93%30.12 "HgN/A
3:00 AM47 °FCool.3 mph96%30.13 "HgN/A
2:00 AM47 °FCool.2 mph96%30.14 "HgN/A
1:00 AM48 °FCool.1 mph94%30.16 "HgN/A
12:00 AM49 °FCool.2 mph91%30.16 "HgN/A
11:00 PM
Fri, May 22
49 °FCool.No wind92%30.17 "HgN/A
10:00 PM50 °FCool.1 mph93%30.18 "HgN/A
9:00 PM51 °FCool.1 mph93%30.17 "HgN/A
8:00 PM54 °FCool.1 mph79%30.16 "HgN/A
7:00 PM56 °FCool.No wind61%30.16 "HgN/A
6:00 PM55 °FCool.2 mph71%30.17 "HgN/A
5:00 PM54 °FCool.2 mph72%30.19 "HgN/A
4:00 PM54 °FCool.3 mph73%30.20 "HgN/A
3:00 PM53 °FCool.1 mph78%30.22 "HgN/A
2:00 PM53 °FCool.1 mph76%30.23 "HgN/A
1:00 PM52 °FCool.1 mph77%30.24 "HgN/A
12:00 PM51 °FCool.2 mph80%30.26 "HgN/A
11:00 AM50 °FCool.1 mph82%30.27 "HgN/A
10:00 AM49 °FCool.No wind87%30.28 "HgN/A
9:00 AM47 °FCool.1 mph92%30.29 "HgN/A
Weather by CustomWeather, © 2015

See weather overviewHow to use our weather pages